Overview Statistics Trail Chart Weather Telemetry Raw packets
 

This is the latest recevied weather packets stored in our database for station/object IZ5RIE-13. If no packets are shown the sender has not sent any weather packets the latest 10 day(s).

<< 18 19 20 21 22 23 24 >>
Time Temp. Humidity Pressure Rain* Wind** Luminosity Snow
1788344628 32.78° C 100% 1021 hPa - - - -
1788343728 32.78° C 100% 1021 hPa - - - -
1788342827 32.78° C 100% 1021.2 hPa - - - -
1788341926 33.33° C 100% 1021.1 hPa - - - -
1788341026 33.33° C 100% 1021 hPa - - - -
1788340126 33.33° C 100% 1021 hPa - - - -
1788339226 33.33° C 100% 1021 hPa - - - -
1788338326 32.22° C 100% 1020.9 hPa - - - -
1788337426 30.56° C 100% 1020.8 hPa - - - -
1788336524 28.33° C 100% 1020.8 hPa - - - -
1788336500 28.33° C 100% 1020.8 hPa - - - -
1788335600 27.78° C 100% 1020.6 hPa - - - -
1788335566 27.78° C 100% 1020.5 hPa - - - -
1788335537 27.78° C 100% 1020.5 hPa - - - -
1788334637 27.22° C 100% 1020.4 hPa - - - -
1788334611 27.22° C 100% 1020.3 hPa - - - -
1788333711 27.22° C 100% 1020.3 hPa - - - -
1788333682 27.22° C 100% 1020.3 hPa - - - -
1788332782 26.67° C 100% 1020.2 hPa - - - -
1788331852 27.22° C 100% 1020.2 hPa - - - -
1788331822 27.22° C 100% 1020.3 hPa - - - -
1788331794 27.22° C 100% 1020.2 hPa - - - -
1788330894 27.78° C 100% 1020.2 hPa - - - -
1788330864 28.33° C 100% 1020.3 hPa - - - -
1788330825 28.33° C 100% 1020.1 hPa - - - -

* Rain since midnight (hover to see other rain measurements)
** Current wind speed in m/s (hover to see current wind gust speed)